Location: Bytom
(50.3475°N, 18.9244°E)
Time: 13:27:01
(UTC+01:00)

ISS - Pass Details

Date: 31 January 2019
Orbit: 403 x 411 km, 51.6° (Epoch: 20 February)

Event Time Altitude Azimuth Distance (km) Brightness Sun altitude
Rises 19:47:13 0° 285° (WNW) 2,342 1.2 -30.6°
Reaches altitude 10° 19:49:18 10° 284° (WNW) 1,480 -0.1 -30.9°
Enters shadow 19:49:38 12° 284° (WNW) 1,345 -0.4 -31.0°
